User: anonymous   Login
Location: Boston
(42.3580°N, 71.0600°W)
Time: 08:51:59
(UTC-05:00)
Language:

SPROUT - Orbit

View from above orbital plane
View from above orbital plane
View from above satellite
View from above satellite

Ground track
Ground track

The orbit data is extracted from the following two-line orbital elements,

1 39770U 14029E   18018.17303462  .00000434  00000-0  55043-4 0  9998
2 39770  97.8751 120.5478 0008690 351.8891   8.2207 14.86632123198070
Epoch (UTC): 18 January 2018 04:09:10
Eccentricity: 0.0008690
inclination: 97.8751°
perigee height: 602 km
apogee height: 614 km
right ascension of ascending node: 120.5478°
argument of perigee: 351.8891°
revolutions per day: 14.86632123
mean anomaly at epoch: 8.2207°
orbit number at epoch: 19807

The dashed part of the orbit path shows where the satellite is in the earth's shadow,  

DLR